 day,  time,  air_temp(C),  RH(%),  ground_temp10cm(C),  ground_temp20cm(C),  ground_temp40cm(C),  precipitation(mm/h),  Solar_Radiation(MJ/m2h),  lack, 
 04/05/01, 01:00,   9.9,  40,   9.6,   9.1,   7.7,   0.0,  0.00, 
 04/05/01, 02:00,  10.4,  33,   9.3,   9.1,   7.7,   0.0,  0.00, 
 04/05/01, 03:00,  10.4,  36,   9.1,   9.0,   7.7,   0.0,  0.00, 
 04/05/01, 04:00,   9.3,  44,   9.0,   9.0,   7.8,   0.0,  0.00, 
 04/05/01, 05:00,   9.2,  40,   8.8,   8.9,   7.8,   0.0,  0.00, 
 04/05/01, 06:00,   8.9,  42,   8.7,   8.9,   7.8,   0.0,  0.09, 
 04/05/01, 07:00,  11.3,  36,   8.6,   8.8,   7.8,   0.0,  0.72, 
 04/05/01, 08:00,  13.9,  22,   8.6,   8.8,   7.9,   0.0,  1.57, 
 04/05/01, 09:00,  13.6,  49,   9.0,   8.7,   7.9,   0.0,  2.38, 
 04/05/01, 10:00,  15.9,  42,   9.5,   8.7,   7.9,   0.0,  2.94, 
 04/05/01, 11:00,  17.4,  38,  10.1,   8.7,   7.8,   0.0,  3.36, 
 04/05/01, 12:00,  19.1,  24,  11.1,   8.8,   7.9,   0.0,  3.60, 
 04/05/01, 13:00,  19.2,  24,  12.1,   8.9,   7.9,   0.0,  3.52, 
 04/05/01, 14:00,  18.6,  21,  12.4,   9.1,   7.9,   0.0,  3.28, 
 04/05/01, 15:00,  19.6,  18,  12.4,   9.3,   8.0,   0.0,  2.86, 
 04/05/01, 16:00,  17.8,  18,  12.4,   9.5,   8.0,   0.0,  2.19, 
 04/05/01, 17:00,  15.8,  28,  12.5,   9.7,   8.0,   0.0,  1.48, 
 04/05/01, 18:00,  13.5,  34,  12.4,   9.8,   8.1,   0.0,  0.67, 
 04/05/01, 19:00,  10.6,  40,  12.1,  10.0,   8.0,   0.0,  0.08, 
 04/05/01, 20:00,   8.6,  51,  11.8,  10.1,   8.1,   0.0,  0.00, 
 04/05/01, 21:00,   9.1,  46,  11.4,  10.1,   8.1,   0.0,  0.00, 
 04/05/01, 22:00,   8.7,  48,  11.1,  10.2,   8.1,   0.0,  0.00, 
 04/05/01, 23:00,   7.9,  54,  10.7,  10.1,   8.1,   0.0,  0.00, 
 04/05/02, 00:00,   8.1,  54,  10.4,  10.1,   8.2,   0.0,  0.00, 
 04/05/02, 01:00,   9.3,  58,  10.2,  10.1,   8.2,   0.0,  0.00, 
 04/05/02, 02:00,   8.5,  72,   9.9,  10.0,   8.2,   0.0,  0.00, 
 04/05/02, 03:00,   7.6,  78,   9.7,   9.9,   8.3,   0.0,  0.00, 
 04/05/02, 04:00,   7.5,  78,   9.5,   9.8,   8.3,   0.0,  0.00, 
 04/05/02, 05:00,   6.2,  83,   9.3,   9.8,   8.3,   0.0,  0.00, 
 04/05/02, 06:00,   7.0,  81,   9.1,   9.7,   8.3,   0.0,  0.13, 
 04/05/02, 07:00,   9.9,  78,   8.9,   9.6,   8.4,   0.0,  0.82, 
 04/05/02, 08:00,  11.4,  69,   9.0,   9.5,   8.3,   0.0,  1.65, 
 04/05/02, 09:00,  11.5,  72,   9.4,   9.4,   8.4,   0.0,  2.36, 
 04/05/02, 10:00,  12.4,  73,   9.9,   9.4,   8.4,   0.0,  2.98, 
 04/05/02, 11:00,  13.6,  70,  10.6,   9.4,   8.4,   0.0,  3.38, 
 04/05/02, 12:00,  16.0,  63,  11.6,   9.4,   8.4,   0.0,  3.37, 
 04/05/02, 13:00,  16.4,  62,  12.5,   9.5,   8.5,   0.0,  2.49, 
 04/05/02, 14:00,  16.5,  58,  13.0,   9.7,   8.5,   0.0,  2.75, 
 04/05/02, 15:00,  16.6,  56,  13.1,   9.9,   8.6,   0.0,  2.83, 
 04/05/02, 16:00,  15.0,  63,  13.1,  10.1,   8.5,   0.0,  2.13, 
 04/05/02, 17:00,  14.0,  70,  13.2,  10.3,   8.5,   0.0,  1.29, 
 04/05/02, 18:00,  11.6,  80,  13.3,  10.4,   8.5,   0.0,  0.68, 
 04/05/02, 19:00,  10.0,  93,  13.1,  10.6,   8.5,   0.0,  0.06, 
 04/05/02, 20:00,   9.3,  96,  12.7,  10.7,   8.5,   0.0,  0.00, 
 04/05/02, 21:00,   9.6,  94,  12.5,  10.8,   8.5,   0.0,  0.00, 
 04/05/02, 22:00,   9.3,  97,  12.2,  10.8,   8.6,   0.0,  0.00, 
 04/05/02, 23:00,   9.0,  98,  12.0,  10.8,   8.6,   0.0,  0.00, 
 04/05/03, 00:00,   9.4,  95,  11.8,  10.8,   8.6,   0.0,  0.00, 
 04/05/03, 01:00,   9.1,  97,  11.6,  10.8,   8.6,   0.0,  0.00, 
 04/05/03, 02:00,   9.8,  93,  11.5,  10.8,   8.6,   0.0,  0.00, 
 04/05/03, 03:00,  10.1,  94,  11.3,  10.8,   8.7,   0.0,  0.00, 
 04/05/03, 04:00,   8.6,  99,  11.2,  10.7,   8.8,   0.0,  0.00, 
 04/05/03, 05:00,  10.2,  94,  11.1,  10.7,   8.8,   0.0,  0.00, 
 04/05/03, 06:00,  10.7,  90,  11.0,  10.6,   8.8,   0.0,  0.03, 
 04/05/03, 07:00,  10.7,  92,  10.9,  10.6,   8.8,   0.0,  0.21, 
 04/05/03, 08:00,  11.2,  91,  10.8,  10.5,   8.9,   0.0,  0.35, 
 04/05/03, 09:00,  12.2,  88,  10.9,  10.5,   8.9,   0.0,  0.63, 
 04/05/03, 10:00,  13.1,  84,  11.0,  10.5,   8.8,   0.0,  1.07, 
 04/05/03, 11:00,  13.2,  89,  11.2,  10.5,   8.9,   0.0,  0.67, 
 04/05/03, 12:00,  13.4,  88,  11.3,  10.4,   8.9,   0.0,  0.49, 
 04/05/03, 13:00,  11.9,  98,  11.4,  10.5,   9.0,   0.0,  0.34, 
 04/05/03, 14:00,  12.0,  96,  11.4,  10.5,   9.0,   0.0,  0.24, 
 04/05/03, 15:00,  10.9,  99,  11.4,  10.5,   9.0,   0.0,  0.28, 
 04/05/03, 16:00,  10.7,  99,  11.4,  10.5,   8.9,   0.0,  0.16, 
 04/05/03, 17:00,  11.0,  97,  11.4,  10.5,   9.0,   0.0,  0.17, 
 04/05/03, 18:00,  10.9,  94,  11.3,  10.5,   8.9,   0.0,  0.09, 
 04/05/03, 19:00,  10.7,  82,  11.3,  10.5,   8.9,   0.0,  0.00, 
 04/05/03, 20:00,  10.3,  79,  11.2,  10.6,   9.1,   0.0,  0.00, 
 04/05/03, 21:00,  10.2,  60,  11.1,  10.6,   9.0,   0.0,  0.00, 
 04/05/03, 22:00,   9.7,  56,  11.0,  10.4,   9.0,   0.0,  0.00, 
 04/05/03, 23:00,   9.4,  59,  10.8,  10.5,   9.0,   0.0,  0.00, 
 04/05/04, 00:00,   9.1,  71,  10.7,  10.5,   9.1,   0.0,  0.00, 
 04/05/04, 01:00,  10.1,  83,  10.6,  10.5,   9.1,   0.0,  0.00, 
 04/05/04, 02:00,  10.1,  93,  10.5,  10.4,   9.0,   0.0,  0.00, 
 04/05/04, 03:00,  11.3,  99,  10.4,  10.4,   9.0,   0.0,  0.00, 
 04/05/04, 04:00,  11.3,  99,  10.4,  10.4,   9.1,   0.5,  0.00, 
 04/05/04, 05:00,  11.9,  99,  10.4,  10.3,   9.1,   1.5,  0.00, 
 04/05/04, 06:00,  12.7,  99,  10.4,  10.3,   9.1,   1.0,  0.00, 
 04/05/04, 07:00,  13.3,  99,  10.4,  10.3,   9.2,   0.0,  0.13, 
 04/05/04, 08:00,  13.4,  99,  10.5,  10.2,   9.1,   1.0,  0.14, 
 04/05/04, 09:00,  13.8,  99,  10.6,  10.2,   9.1,   1.0,  0.14, 
 04/05/04, 10:00,  14.1,  99,  10.7,  10.2,   9.1,   2.0,  0.36, 
 04/05/04, 11:00,  14.4,  99,  10.9,  10.2,   9.1,   1.5,  0.41, 
 04/05/04, 12:00,  14.6,  99,  11.0,  10.2,   9.1,   0.5,  0.40, 
 04/05/04, 13:00,  14.7,  99,  11.2,  10.3,   9.2,   1.0,  0.27, 
 04/05/04, 14:00,  14.7,  99,  11.3,  10.3,   9.2,   3.0,  0.20, 
 04/05/04, 15:00,  13.5,  99,  11.6,  10.4,   9.2,   8.5,  0.13, 
 04/05/04, 16:00,  12.3,  99,  11.9,  10.5,   9.2,   5.5,  0.09, 
 04/05/04, 17:00,  11.5,  99,  12.0,  10.7,   9.3,   6.0,  0.08, 
 04/05/04, 18:00,  11.2,  99,  12.0,  10.8,   9.2,   3.5,  0.00, 
 04/05/04, 19:00,  11.2,  99,  11.9,  11.0,   9.3,   6.0,  0.00, 
 04/05/04, 20:00,  10.6,  99,  11.8,  11.1,   9.3,   1.5,  0.00, 
 04/05/04, 21:00,  10.2,  99,  11.7,  11.1,   9.4,   0.0,  0.00, 
 04/05/04, 22:00,  10.1,  99,  11.6,  11.1,   9.3,   0.0,  0.00, 
 04/05/04, 23:00,   9.6,  99,  11.5,  11.1,   9.4,   0.0,  0.00, 
 04/05/05, 00:00,   9.7,  99,  11.5,  11.1,   9.4,   0.0,  0.00, 
 04/05/05, 01:00,   9.7,  99,  11.4,  11.1,   9.4,   0.0,  0.00, 
 04/05/05, 02:00,   8.8,  99,  11.3,  10.9,   9.5,   0.0,  0.00, 
 04/05/05, 03:00,   8.4,  99,  11.2,  11.0,   9.5,   0.0,  0.00, 
 04/05/05, 04:00,   7.7,  99,  11.1,  11.0,   9.5,   0.0,  0.00, 
 04/05/05, 05:00,   7.7,  99,  11.0,  10.8,   9.5,   0.0,  0.00, 
 04/05/05, 06:00,   7.2,  99,  10.9,  10.9,   9.6,   0.0,  0.05, 
 04/05/05, 07:00,   6.7,  99,  10.8,  10.8,   9.6,   0.0,  0.11, 
 04/05/05, 08:00,   7.2,  99,  10.8,  10.8,   9.6,   0.0,  0.25, 
 04/05/05, 09:00,   7.3,  99,  10.7,  10.7,   9.6,   0.0,  0.38, 
 04/05/05, 10:00,   8.4,  99,  10.7,  10.7,   9.6,   0.0,  0.57, 
 04/05/05, 11:00,   9.4,  99,  10.8,  10.6,   9.6,   0.0,  0.66, 
 04/05/05, 12:00,  10.0,  99,  10.9,  10.7,   9.6,   0.0,  0.89, 
 04/05/05, 13:00,  10.3,  99,  11.1,  10.7,   9.6,   0.0,  0.88, 
 04/05/05, 14:00,  10.6,  99,  11.3,  10.7,   9.6,   0.0,  0.86, 
 04/05/05, 15:00,  11.1,  99,  11.5,  10.7,   9.6,   0.0,  0.88, 
 04/05/05, 16:00,  11.9,  94,  11.7,  10.7,   9.6,   0.0,  0.94, 
 04/05/05, 17:00,  10.5,  99,  11.8,  10.7,   9.6,   0.0,  0.56, 
 04/05/05, 18:00,   9.5,  99,  11.9,  10.8,   9.6,   0.0,  0.27, 
 04/05/05, 19:00,   9.3,  99,  11.9,  10.7,   9.6,   0.0,  0.04, 
 04/05/05, 20:00,   8.6,  99,  11.8,  10.9,   9.7,   0.0,  0.00, 
 04/05/05, 21:00,   8.1,  99,  11.6,  10.8,   9.6,   0.0,  0.00, 
 04/05/05, 22:00,   7.7,  99,  11.5,  10.8,   9.6,   0.0,  0.00, 
 04/05/05, 23:00,   7.6,  99,  11.3,  10.8,   9.6,   0.0,  0.00, 
 04/05/06, 00:00,   7.2,  99,  11.1,  10.8,   9.6,   0.0,  0.00, 
 04/05/06, 01:00,   6.0,  99,  10.9,  10.8,   9.6,   0.0,  0.00, 
 04/05/06, 02:00,   6.0,  98,  10.7,  10.8,   9.6,   0.0,  0.00, 
 04/05/06, 03:00,   4.4,  99,  10.5,  10.8,   9.7,   0.0,  0.00, 
 04/05/06, 04:00,   3.6,  99,  10.3,  10.7,   9.7,   0.0,  0.00, 
 04/05/06, 05:00,   3.0,  99,  10.0,  10.6,   9.7,   0.0,  0.00, 
 04/05/06, 06:00,   3.2,  99,   9.8,  10.5,   9.7,   0.0,  0.13, 
 04/05/06, 07:00,   8.2,  78,   9.6,  10.4,   9.7,   0.0,  1.02, 
 04/05/06, 08:00,   8.2,  72,   9.7,  10.4,   9.7,   0.0,  1.85, 
 04/05/06, 09:00,  11.0,  71,  10.0,  10.4,   9.7,   0.0,  2.52, 
 04/05/06, 10:00,  13.6,  67,  10.5,  10.3,   9.7,   0.0,  3.11, 
 04/05/06, 11:00,  15.9,  52,  11.3,  10.3,   9.7,   0.0,  3.36, 
 04/05/06, 12:00,  16.4,  37,  12.3,  10.3,   9.7,   0.0,  3.59, 
 04/05/06, 13:00,  17.9,  33,  13.4,  10.4,   9.7,   0.0,  3.61, 
 04/05/06, 14:00,  18.6,  35,  13.7,  10.6,   9.8,   0.0,  3.31, 
 04/05/06, 15:00,  17.6,  41,  13.7,  10.8,   9.8,   0.0,  2.83, 
 04/05/06, 16:00,  17.9,  42,  13.7,  11.1,   9.8,   0.0,  2.22, 
 04/05/06, 17:00,  15.7,  49,  13.9,  11.2,   9.7,   0.0,  1.22, 
 04/05/06, 18:00,  13.8,  48,  13.9,  11.4,   9.8,   0.0,  0.67, 
 04/05/06, 19:00,  11.7,  57,  13.6,  11.5,   9.8,   0.0,  0.07, 
 04/05/06, 20:00,  10.1,  64,  13.4,  11.6,   9.8,   0.0,  0.00, 
 04/05/06, 21:00,   8.8,  71,  13.1,  11.7,   9.7,   0.0,  0.00, 
 04/05/06, 22:00,   8.4,  80,  12.6,  11.7,   9.8,   0.0,  0.00, 
 04/05/06, 23:00,   8.9,  84,  12.3,  11.7,   9.7,   0.0,  0.00, 
 04/05/07, 00:00,   8.3,  88,  12.0,  11.7,   9.7,   0.0,  0.00, 
 04/05/07, 01:00,   7.9,  91,  11.7,  11.6,   9.8,   0.0,  0.00, 
 04/05/07, 02:00,   7.8,  81,  11.5,  11.6,   9.8,   0.0,  0.00, 
 04/05/07, 03:00,   5.9,  88,  11.2,  11.4,   9.8,   0.0,  0.00, 
 04/05/07, 04:00,   6.7,  83,  11.0,  11.4,   9.8,   0.0,  0.00, 
 04/05/07, 05:00,   6.8,  81,  10.7,  11.3,   9.8,   0.0,  0.00, 
 04/05/07, 06:00,   7.2,  77,  10.5,  11.3,   9.9,   0.0,  0.13, 
 04/05/07, 07:00,  11.0,  64,  10.4,  11.2,   9.9,   0.0,  0.78, 
 04/05/07, 08:00,  11.3,  61,  10.4,  11.0,   9.9,   0.0,  1.57, 
 04/05/07, 09:00,  14.0,  56,  10.7,  11.0,  10.0,   0.0,  2.36, 
 04/05/07, 10:00,  14.0,  44,  11.2,  10.9,   9.9,   0.0,  2.95, 
 04/05/07, 11:00,  15.5,  43,  11.8,  10.9,  10.0,   0.0,  3.39, 
 04/05/07, 12:00,  15.6,  47,  12.8,  10.9,  10.0,   0.0,  3.62, 
 04/05/07, 13:00,  15.2,  44,  13.8,  11.0,  10.0,   0.0,  3.26, 
 04/05/07, 14:00,  15.0,  44,  14.0,  11.2,  10.0,   0.0,  3.23, 
 04/05/07, 15:00,  16.2,  43,  13.9,  11.4,  10.0,   0.0,  2.84, 
 04/05/07, 16:00,  14.9,  38,  13.8,  11.5,  10.0,   0.0,  2.18, 
 04/05/07, 17:00,  14.2,  46,  13.9,  11.7,  10.0,   0.0,  1.42, 
 04/05/07, 18:00,  12.4,  60,  13.8,  11.8,  10.0,   0.0,  0.72, 
 04/05/07, 19:00,   9.5,  76,  13.6,  11.9,  10.0,   0.0,  0.09, 
 04/05/07, 20:00,   8.2,  78,  13.2,  12.0,  10.0,   0.0,  0.00, 
 04/05/07, 21:00,   8.0,  75,  12.9,  12.0,  10.1,   0.0,  0.00, 
 04/05/07, 22:00,   7.2,  74,  12.4,  12.0,  10.1,   0.0,  0.00, 
 04/05/07, 23:00,   7.4,  73,  12.0,  11.9,  10.1,   0.0,  0.00, 
 04/05/08, 00:00,   8.5,  60,  11.7,  11.9,  10.1,   0.0,  0.00, 
 04/05/08, 01:00,   9.1,  39,  11.4,  11.8,  10.1,   0.0,  0.00, 
 04/05/08, 02:00,   6.9,  47,  11.1,  11.7,  10.2,   0.0,  0.00, 
 04/05/08, 03:00,   7.5,  38,  10.8,  11.6,  10.2,   0.0,  0.00, 
 04/05/08, 04:00,   7.2,  38,  10.5,  11.4,  10.1,   0.0,  0.00, 
 04/05/08, 05:00,   7.4,  33,  10.2,  11.4,  10.2,   0.0,  0.00, 
 04/05/08, 06:00,   8.2,  38,   9.9,  11.3,  10.1,   0.0,  0.15, 
 04/05/08, 07:00,  12.1,  43,   9.8,  11.1,  10.2,   0.0,  0.90, 
 04/05/08, 08:00,  14.7,  44,  10.0,  11.0,  10.2,   0.0,  1.69, 
 04/05/08, 09:00,  15.6,  38,  10.5,  10.9,  10.2,   0.0,  2.37, 
 04/05/08, 10:00,  16.1,  40,  11.2,  10.8,  10.2,   0.0,  2.87, 
 04/05/08, 11:00,  16.5,  48,  11.9,  10.8,  10.3,   0.0,  3.22, 
 04/05/08, 12:00,  20.7,  31,  12.9,  10.9,  10.2,   0.0,  3.55, 
 04/05/08, 13:00,  20.8,  34,  13.8,  11.0,  10.2,   0.0,  2.92, 
 04/05/08, 14:00,  21.0,  29,  14.2,  11.2,  10.2,   0.0,  3.20, 
 04/05/08, 15:00,  20.6,  37,  14.4,  11.4,  10.2,   0.0,  2.62, 
 04/05/08, 16:00,  19.1,  44,  14.5,  11.6,  10.2,   0.0,  1.63, 
 04/05/08, 17:00,  17.0,  48,  14.5,  11.8,  10.2,   0.0,  1.23, 
 04/05/08, 18:00,  14.6,  64,  14.5,  11.9,  10.2,   0.0,  0.46, 
 04/05/08, 19:00,  12.8,  83,  14.4,  12.1,  10.2,   0.0,  0.04, 
 04/05/08, 20:00,  12.4,  91,  14.0,  12.2,  10.2,   0.0,  0.00, 
 04/05/08, 21:00,  12.0,  94,  13.9,  12.3,  10.2,   0.0,  0.00, 
 04/05/08, 22:00,  11.4,  95,  13.6,  12.3,  10.3,   0.0,  0.00, 
 04/05/08, 23:00,  10.9,  98,  13.4,  12.3,  10.3,   0.0,  0.00, 
 04/05/09, 00:00,  10.7,  99,  13.2,  12.3,  10.3,   0.0,  0.00, 
 04/05/09, 01:00,  10.3,  99,  13.0,  12.3,  10.3,   0.0,  0.00, 
 04/05/09, 02:00,   9.8,  99,  12.8,  12.3,  10.4,   0.0,  0.00, 
 04/05/09, 03:00,   9.6,  96,  12.6,  12.3,  10.4,   0.0,  0.00, 
 04/05/09, 04:00,  10.9,  71,  12.4,  12.2,  10.4,   0.0,  0.00, 
 04/05/09, 05:00,  10.9,  59,  12.2,  12.2,  10.4,   0.0,  0.00, 
 04/05/09, 06:00,  11.2,  56,  12.1,  12.1,  10.4,   0.0,  0.05, 
 04/05/09, 07:00,  11.9,  48,  11.9,  12.0,  10.4,   0.0,  0.20, 
 04/05/09, 08:00,  11.5,  43,  11.8,  12.0,  10.5,   0.0,  0.26, 
 04/05/09, 09:00,  11.0,  62,  11.8,  11.9,  10.5,   0.0,  0.51, 
 04/05/09, 10:00,  11.0,  70,  11.8,  11.9,  10.5,   0.0,  0.81, 
 04/05/09, 11:00,   9.5,  98,  11.9,  11.8,  10.5,   0.0,  0.75, 
 04/05/09, 12:00,   9.7,  99,  12.0,  11.8,  10.5,   0.0,  0.88, 
 04/05/09, 13:00,   9.9,  99,  12.1,  11.7,  10.5,   2.0,  0.58, 
 04/05/09, 14:00,   9.4,  99,  12.2,  11.7,  10.5,   1.0,  0.31, 
 04/05/09, 15:00,   9.5,  99,  12.2,  11.7,  10.5,   1.5,  0.25, 
 04/05/09, 16:00,   9.9,  99,  12.2,  11.7,  10.5,   0.0,  0.19, 
 04/05/09, 17:00,  11.1,  99,  12.1,  11.6,  10.5,   1.0,  0.14, 
 04/05/09, 18:00,  12.3,  99,  12.1,  11.7,  10.5,   0.0,  0.02, 
 04/05/09, 19:00,  12.4,  99,  12.1,  11.7,  10.5,   0.5,  0.00, 
 04/05/09, 20:00,  12.5,  99,  12.1,  11.6,  10.5,   1.0,  0.00, 
 04/05/09, 21:00,  13.4,  99,  12.0,  11.7,  10.5,   1.0,  0.00, 
 04/05/09, 22:00,  13.5,  99,  12.0,  11.7,  10.5,   0.0,  0.00, 
 04/05/09, 23:00,  13.5,  99,  12.1,  11.7,  10.5,   2.0,  0.00, 
 04/05/10, 00:00,  13.6,  99,  12.1,  11.7,  10.5,   1.0,  0.00, 
 04/05/10, 01:00,  13.9,  99,  12.1,  11.6,  10.5,   0.5,  0.00, 
 04/05/10, 02:00,  14.1,  99,  12.1,  11.7,  10.5,   0.5,  0.00, 
 04/05/10, 03:00,  14.1,  99,  12.1,  11.6,  10.5,   1.0,  0.00, 
 04/05/10, 04:00,  14.1,  99,  12.2,  11.6,  10.6,   2.0,  0.00, 
 04/05/10, 05:00,  14.3,  99,  12.3,  11.7,  10.6,   3.0,  0.00, 
 04/05/10, 06:00,  14.0,  99,  12.3,  11.8,  10.6,   5.0,  0.00, 
 04/05/10, 07:00,  14.0,  99,  12.4,  11.8,  10.6,   2.5,  0.04, 
 04/05/10, 08:00,  13.8,  99,  12.5,  11.8,  10.6,   3.5,  0.20, 
 04/05/10, 09:00,  13.6,  99,  12.6,  11.9,  10.6,   1.0,  0.37, 
 04/05/10, 10:00,  14.2,  99,  12.7,  11.9,  10.6,   0.5,  0.54, 
 04/05/10, 11:00,  14.4,  99,  12.9,  12.0,  10.6,   0.0,  0.72, 
 04/05/10, 12:00,  16.1,  99,  13.2,  12.0,  10.7,   0.5,  1.32, 
 04/05/10, 13:00,  14.8,  99,  13.5,  12.0,  10.8,   0.5,  0.73, 
 04/05/10, 14:00,  15.0,  99,  13.6,  12.1,  10.7,   0.5,  0.42, 
 04/05/10, 15:00,  15.0,  99,  13.7,  12.2,  10.7,   1.5,  0.34, 
 04/05/10, 16:00,  14.9,  99,  13.8,  12.3,  10.7,   2.5,  0.30, 
 04/05/10, 17:00,  14.3,  99,  13.9,  12.4,  10.7,   0.5,  0.10, 
 04/05/10, 18:00,  12.2,  99,  14.0,  12.5,  10.8,  13.0,  0.00, 
 04/05/10, 19:00,  11.7,  99,  13.9,  12.8,  10.9,   7.5,  0.00, 
 04/05/10, 20:00,  10.2,  99,  13.6,  13.0,  10.9,   8.0,  0.00, 
 04/05/10, 21:00,  10.0,  99,  13.5,  13.1,  10.9,   1.5,  0.00, 
 04/05/10, 22:00,   9.7,  99,  13.3,  13.1,  11.1,   0.0,  0.00, 
 04/05/10, 23:00,   9.6,  99,  13.0,  13.0,  11.1,   0.5,  0.00, 
 04/05/11, 00:00,   9.9,  99,  12.9,  13.0,  11.2,   0.0,  0.00, 
 04/05/11, 01:00,   9.9,  99,  12.7,  12.9,  11.2,   0.0,  0.00, 
 04/05/11, 02:00,  10.0,  99,  12.6,  12.7,  11.2,   0.0,  0.00, 
 04/05/11, 03:00,  10.0,  99,  12.5,  12.8,  11.3,   0.5,  0.00, 
 04/05/11, 04:00,  10.0,  99,  12.4,  12.7,  11.3,   2.0,  0.00, 
 04/05/11, 05:00,   9.8,  99,  12.3,  12.5,  11.3,   1.0,  0.00, 
 04/05/11, 06:00,   9.6,  99,  12.2,  12.5,  11.3,   0.5,  0.00, 
 04/05/11, 07:00,   9.6,  99,  12.1,  12.5,  11.3,   0.5,  0.05, 
 04/05/11, 08:00,   9.8,  99,  12.1,  12.4,  11.3,   0.0,  0.19, 
 04/05/11, 09:00,  10.5,  99,  12.1,  12.4,  11.3,   0.5,  0.73, 
 04/05/11, 10:00,  11.6,  99,  12.2,  12.2,  11.4,   0.0,  1.21, 
 04/05/11, 11:00,  12.3,  99,  12.5,  12.3,  11.4,   0.0,  1.11, 
 04/05/11, 12:00,  14.0,  88,  13.0,  12.3,  11.4,   0.0,  1.97, 
 04/05/11, 13:00,  14.9,  88,  13.5,  12.3,  11.4,   0.0,  1.75, 
 04/05/11, 14:00,  17.0,  79,  13.8,  12.3,  11.3,   0.0,  2.34, 
 04/05/11, 15:00,  16.8,  80,  14.1,  12.4,  11.3,   0.0,  1.99, 
 04/05/11, 16:00,  17.6,  74,  14.4,  12.5,  11.3,   0.0,  1.88, 
 04/05/11, 17:00,  16.1,  85,  14.6,  12.6,  11.3,   0.0,  1.33, 
 04/05/11, 18:00,  14.4,  89,  14.7,  12.7,  11.3,   0.0,  0.63, 
 04/05/11, 19:00,  12.4,  96,  14.6,  12.8,  11.4,   0.0,  0.10, 
 04/05/11, 20:00,  11.5,  93,  14.4,  12.9,  11.3,   0.0,  0.00, 
 04/05/11, 21:00,  10.5,  99,  14.0,  12.9,  11.3,   0.0,  0.00, 
 04/05/11, 22:00,  10.1,  99,  13.7,  13.0,  11.2,   0.0,  0.00, 
 04/05/11, 23:00,   9.0,  99,  13.5,  13.0,  11.3,   0.0,  0.00, 
 04/05/12, 00:00,   8.1,  99,  13.2,  13.0,  11.3,   0.0,  0.00, 
 04/05/12, 01:00,   7.4,  99,  13.0,  12.9,  11.3,   0.0,  0.00, 
 04/05/12, 02:00,   7.7,  99,  12.6,  12.9,  11.3,   0.0,  0.00, 
 04/05/12, 03:00,   7.5,  99,  12.4,  12.8,  11.3,   0.0,  0.00, 
 04/05/12, 04:00,   7.8,  99,  12.1,  12.6,  11.3,   0.0,  0.00, 
 04/05/12, 05:00,   7.6,  99,  12.0,  12.5,  11.3,   0.0,  0.00, 
 04/05/12, 06:00,   8.4,  92,  11.8,  12.5,  11.3,   0.0,  0.15, 
 04/05/12, 07:00,  11.3,  89,  11.6,  12.4,  11.3,   0.0,  0.86, 
 04/05/12, 08:00,  15.2,  72,  11.8,  12.3,  11.3,   0.0,  1.69, 
 04/05/12, 09:00,  16.6,  63,  12.4,  12.2,  11.3,   0.0,  2.36, 
 04/05/12, 10:00,  19.6,  48,  13.3,  12.2,  11.3,   0.0,  2.94, 
 04/05/12, 11:00,  20.3,  56,  14.2,  12.2,  11.3,   0.5,  3.26, 
 04/05/12, 12:00,  21.8,  53,  15.4,  12.3,  11.4,   0.0,  3.37, 
 04/05/12, 13:00,  21.0,  52,  16.5,  12.5,  11.4,   0.0,  2.79, 
 04/05/12, 14:00,  21.7,  53,  16.9,  12.7,  11.4,   0.0,  2.93, 
 04/05/12, 15:00,  21.1,  50,  16.9,  13.0,  11.4,   0.0,  2.60, 
 04/05/12, 16:00,  19.5,  62,  17.0,  13.3,  11.3,   0.0,  1.55, 
 04/05/12, 17:00,  18.0,  70,  17.0,  13.5,  11.4,   0.0,  1.14, 
 04/05/12, 18:00,  16.1,  78,  16.9,  13.7,  11.3,   0.0,  0.46, 
 04/05/12, 19:00,  14.8,  86,  16.7,  13.9,  11.4,   0.0,  0.05, 
 04/05/12, 20:00,  14.1,  91,  16.4,  14.0,  11.5,   0.0,  0.00, 
 04/05/12, 21:00,  13.5,  96,  16.1,  14.1,  11.5,   0.0,  0.00, 
 04/05/12, 22:00,  13.3,  97,  15.7,  14.1,  11.5,   0.0,  0.00, 
 04/05/12, 23:00,  12.9,  98,  15.6,  14.2,  11.5,   0.0,  0.00, 
 04/05/13, 00:00,  12.5,  98,  15.2,  14.1,  11.6,   0.0,  0.00, 
 04/05/13, 01:00,  12.2,  99,  15.1,  14.1,  11.5,   0.0,  0.00, 
 04/05/13, 02:00,  11.7,  99,  14.8,  14.1,  11.5,   0.0,  0.00, 
 04/05/13, 03:00,  12.2,  91,  14.6,  14.0,  11.6,   0.0,  0.00, 
 04/05/13, 04:00,  12.0,  96,  14.4,  14.0,  11.6,   0.0,  0.00, 
 04/05/13, 05:00,  12.1,  94,  14.3,  13.9,  11.6,   0.0,  0.00, 
 04/05/13, 06:00,  13.1,  84,  14.0,  13.9,  11.7,   0.0,  0.04, 
 04/05/13, 07:00,  13.4,  83,  13.9,  13.8,  11.7,   0.0,  0.24, 
 04/05/13, 08:00,  13.8,  86,  13.8,  13.7,  11.7,   0.0,  0.23, 
 04/05/13, 09:00,  14.2,  86,  13.8,  13.7,  11.7,   0.0,  0.35, 
 04/05/13, 10:00,  14.0,  94,  13.8,  13.6,  11.7,   0.0,  0.47, 
 04/05/13, 11:00,  13.5,  99,  13.8,  13.5,  11.8,   0.0,  0.61, 
 04/05/13, 12:00,  13.3,  99,  13.9,  13.5,  11.8,   2.0,  0.78, 
 04/05/13, 13:00,  13.1,  98,  14.0,  13.5,  11.8,   1.0,  0.75, 
 04/05/13, 14:00,  13.2,  97,  14.1,  13.4,  11.8,   2.0,  0.71, 
 04/05/13, 15:00,  12.8,  99,  14.2,  13.4,  11.8,   1.5,  0.36, 
 04/05/13, 16:00,  13.3,  99,  14.2,  13.5,  11.8,   1.0,  0.38, 
 04/05/13, 17:00,  13.9,  98,  14.2,  13.5,  11.8,   1.0,  0.22, 
 04/05/13, 18:00,  13.6,  99,  14.2,  13.5,  11.9,   1.5,  0.00, 
 04/05/13, 19:00,  14.3,  99,  14.2,  13.5,  12.0,   2.0,  0.00, 
 04/05/13, 20:00,  13.7,  99,  14.0,  13.5,  11.9,   6.0,  0.00, 
 04/05/13, 21:00,  14.3,  99,  14.0,  13.5,  11.9,   2.0,  0.00, 
 04/05/13, 22:00,  14.3,  99,  14.0,  13.6,  11.9,   1.0,  0.00, 
 04/05/13, 23:00,  14.3,  99,  14.0,  13.5,  11.9,   0.5,  0.00, 
 04/05/14, 00:00,  14.2,  99,  13.8,  13.5,  12.0,   0.5,  0.00, 
 04/05/14, 01:00,  14.0,  99,  13.8,  13.5,  12.0,   0.5,  0.00, 
 04/05/14, 02:00,  13.2,  99,  13.8,  13.5,  12.1,   0.5,  0.00, 
 04/05/14, 03:00,  11.9,  99,  13.7,  13.5,  12.1,   0.5,  0.00, 
 04/05/14, 04:00,  11.1,  99,  13.7,  13.4,  12.1,   0.5,  0.00, 
 04/05/14, 05:00,   9.8,  99,  13.6,  13.4,  12.0,   0.5,  0.00, 
 04/05/14, 06:00,  10.2,  89,  13.5,  13.4,  12.1,   0.0,  0.13, 
 04/05/14, 07:00,  11.0,  93,  13.4,  13.4,  12.1,   0.0,  0.61, 
 04/05/14, 08:00,  12.2,  73,  13.3,  13.3,  12.1,   0.0,  1.34, 
 04/05/14, 09:00,  13.7,  67,  13.6,  13.3,  12.1,   0.0,  2.60, 
 04/05/14, 10:00,  13.1,  69,  14.2,  13.2,  12.2,   0.0,  2.91, 
 04/05/14, 11:00,  14.0,  71,  14.8,  13.2,  12.2,   0.5,  2.94, 
 04/05/14, 12:00,  15.4,  63,  15.8,  13.3,  12.1,   0.0,  3.84, 
 04/05/14, 13:00,  16.1,  55,  16.9,  13.5,  12.1,   0.0,  3.67, 
 04/05/14, 14:00,  16.9,  51,  17.0,  13.6,  12.1,   0.0,  3.39, 
 04/05/14, 15:00,  15.7,  51,  16.8,  13.9,  12.1,   0.0,  2.96, 
 04/05/14, 16:00,  15.6,  56,  16.7,  14.1,  12.1,   0.0,  2.32, 
 04/05/14, 17:00,  14.3,  70,  16.7,  14.2,  12.1,   0.0,  1.63, 
 04/05/14, 18:00,  11.5,  82,  16.7,  14.3,  12.1,   0.0,  0.82, 
 04/05/14, 19:00,   9.5,  94,  16.4,  14.4,  12.2,   0.0,  0.14, 
 04/05/14, 20:00,   7.7,  99,  15.9,  14.5,  12.1,   0.0,  0.00, 
 04/05/14, 21:00,   8.3,  99,  15.4,  14.5,  12.1,   0.0,  0.00, 
 04/05/14, 22:00,   8.2,  99,  15.0,  14.5,  12.1,   0.0,  0.00, 
 04/05/14, 23:00,   8.8,  95,  14.6,  14.5,  12.2,   0.0,  0.00, 
 04/05/15, 00:00,   7.7,  83,  14.2,  14.4,  12.2,   0.0,  0.00, 
 04/05/15, 01:00,   8.4,  63,  13.9,  14.3,  12.2,   0.0,  0.00, 
 04/05/15, 02:00,   8.8,  44,  13.5,  14.2,  12.2,   0.0,  0.00, 
 04/05/15, 03:00,   8.0,  37,  13.2,  14.1,  12.3,   0.0,  0.00, 
 04/05/15, 04:00,   9.4,  27,  12.8,  13.9,  12.3,   0.0,  0.00, 
 04/05/15, 05:00,   8.9,  50,  12.4,  13.8,  12.3,   0.0,  0.00, 
 04/05/15, 06:00,   9.0,  54,  12.1,  13.6,  12.3,   0.0,  0.23, 
 04/05/15, 07:00,  12.0,  53,  12.0,  13.5,  12.3,   0.0,  0.81, 
 04/05/15, 08:00,  13.1,  53,  12.1,  13.3,  12.3,   0.0,  1.59, 
 04/05/15, 09:00,  16.5,  43,  12.5,  13.2,  12.3,   0.0,  2.47, 
 04/05/15, 10:00,  16.1,  62,  13.2,  13.1,  12.3,   0.0,  2.97, 
 04/05/15, 11:00,  18.7,  60,  13.9,  13.1,  12.3,   0.0,  2.86, 
 04/05/15, 12:00,  19.2,  57,  14.9,  13.1,  12.3,   0.0,  2.85, 
 04/05/15, 13:00,  19.5,  62,  15.7,  13.2,  12.4,   0.0,  2.47, 
 04/05/15, 14:00,  17.7,  68,  16.1,  13.4,  12.3,   0.0,  1.60, 
 04/05/15, 15:00,  16.2,  74,  16.4,  13.6,  12.3,   0.0,  1.11, 
 04/05/15, 16:00,  14.9,  80,  16.5,  13.7,  12.3,   0.0,  0.68, 
 04/05/15, 17:00,  13.6,  80,  16.4,  13.9,  12.3,   0.0,  0.44, 
 04/05/15, 18:00,  13.0,  75,  16.2,  14.1,  12.3,   0.0,  0.17, 
 04/05/15, 19:00,  12.1,  73,  15.8,  14.2,  12.3,   0.0,  0.00, 
 04/05/15, 20:00,  11.7,  73,  15.6,  14.2,  12.3,   0.0,  0.00, 
 04/05/15, 21:00,  11.1,  79,  15.2,  14.3,  12.4,   0.0,  0.00, 
 04/05/15, 22:00,  11.2,  81,  14.9,  14.3,  12.4,   0.0,  0.00, 
 04/05/15, 23:00,   9.9,  99,  14.7,  14.3,  12.4,   0.0,  0.00, 
 04/05/16, 00:00,  10.0,  99,  14.4,  14.2,  12.3,   0.0,  0.00, 
 04/05/16, 01:00,  10.3,  99,  14.3,  14.2,  12.3,   0.0,  0.00, 